Cloud_Cover
96 53 5 5 66 74 40 0 5 0 0 0 0 0 0 0 0 0 0 0 0 0 0 0 0 0 15 10 2 0 0 2 15 100 100 100 79 29 5 5 45 5 5
5 50 19 100 93 94 6 5 5 0 0 0 0 0 0 0 0 0 0 0 0 0 0 0 0 0 0 97 66 5 1 0 8 98 100 100 90 96 47 5 5 5 85
49 60 59 69 51 11 5 5 0 0 0 0 0 0 0 0 0 0 0 0 0 0 0 0 0 0 0 0 47 3 0 0 1 84 100 100 100 98 50 75 56 5 12
61 5 23 57 82 8 60 78 45 5 5 2 0 0 0 0 0 0 0 0 0 0 0 0 0 0 0 0 4 2 9 0 0 7 100 100 100 70 54 72 29 70 73
100 100 100 96 100 74 95 85 36 10 6 3 0 0 0 0 0 0 0 0 0 0 0 0 0 0 0 0 0 0 1 9 0 0 92 100 100 100 93 94 100 30 77
100 100 99 94 99 100 100 100 90 83 95 10 0 0 0 1 0 0 0 0 0 0 0 0 0 0 0 0 0 0 0 6 0 0 16 100 100 100 100 100 100 72 93
99 81 47 100 100 61 98 100 100 74 27 100 0 0 0 2 5 4 0 0 0 0 0 0 0 0 0 0 0 0 0 0 5 0 0 100 100 100 100 100 99 100 6
87 28 24 30 65 86 99 93 92 100 97 100 6 0 0 0 4 5 5 0 0 0 0 0 0 0 0 0 0 0 0 0 18 84 0 85 100 100 100 97 95 100 100
49 69 84 68 31 79 100 100 95 89 39 5 5 4 0 4 3 0 0 0 0 0 0 0 0 0 0 0 0 0 0 0 21 53 1 20 100 100 100 100 93 67 100
100 99 100 89 82 29 48 54 5 41 6 5 5 5 5 5 5 5 0 0 0 0 0 0 0 0 0 0 0 0 0 0 0 31 95 0 24 100 100 100 88 100 99
100 100 100 100 97 99 100 80 99 50 5 8 5 5 13 79 24 20 5 2 0 0 0 0 0 0 0 0 0 0 0 0 0 0 27 0 1 86 100 100 100 100 50
100 100 100 100 94 94 98 95 100 100 100 99 58 49 5 24 21 45 6 5 0 0 0 0 0 0 0 0 0 0 0 0 0 0 18 13 0 71 100 100 100 100 9
100 100 100 100 100 100 99 97 98 100 100 100 100 100 77 43 5 5 5 7 5 2 5 2 0 0 0 0 0 0 0 0 0 0 15 39 2 1 96 100 96 100 79
11 87 100 92 95 100 100 100 96 84 96 100 100 100 100 79 39 5 5 5 5 41 5 5 4 0 0 0 0 0 0 0 0 0 0 1 59 1 68 100 41 100 100
82 88 93 96 99 98 100 100 99 98 89 96 100 100 100 100 67 16 3 34 96 84 45 5 5 2 3 0 0 0 0 0 0 0 0 0 2 5 45 46 100 99 100
100 100 100 100 100 99 98 97 90 87 82 86 58 100 91 99 81 61 32 27 59 14 9 5 5 1 0 4 3 2 0 0 0 0 0 0 5 5 6 100 90 100 100
100 100 100 100 100 100 100 100 94 92 100 100 82 64 100 98 100 94 8 21 40 9 7 92 4 4 1 5 5 5 3 3 0 0 0 0 2 5 78 88 11 100 100
100 100 100 100 96 91 100 100 100 100 100 100 100 87 72 95 100 100 7 8 50 5 5 100 5 2 5 7 6 5 4 5 0 0 0 0 0 79 80 45 100 100 100
100 81 100 100 90 98 100 100 100 100 100 90 100 100 96 80 92 100 100 97 7 6 14 77 23 5 5 55 100 25 52 4 0 2 0 0 5 100 100 99 100 100 100
100 100 100 100 100 100 98 100 100 100 76 100 100 100 100 74 100 100 100 69 48 90 6 95 67 5 43 97 100 100 82 22 4 100 50 0 6 27 100 100 100 100 100
100 100 100 100 100 100 100 100 100 100 98 100 100 100 100 86 100 100 100 58 57 100 20 72 15 19 82 100 100 97 98 80 79 35 100 100 100 100 100 100 100 100 100
100 100 100 100 100 100 100 100 100 100 91 100 100 100 100 100 100 100 100 100 99 100 62 5 46 91 100 100 100 73 100 100 100 61 100 100 100 100 100 100 100 100 100
100 100 100 99 100 100 100 100 100 100 100 98 100 100 100 100 100 100 100 100 100 12 50 5 85 99 100 100 100 56 100 100 92 93 100 100 100 100 100 100 100 100 100
100 100 100 79 100 100 100 100 100 100 100 100 100 100 100 100 100 100 100 100 100 77 95 18 100 99 100 100 100 33 100 100 78 94 100 93 100 100 100 100 100 100 100
100 100 100 99 100 100 100 100 100 100 100 100 100 100 100 100 100 100 100 100 100 78 71 70 97 96 100 100 100 100 100 92 100 100 100 100 100 100 100 100 100 100 100
100 100 100 100 100 100 100 100 100 100 100 100 100 98 100 100 100 100 100 100 100 76 58 44 72 99 100 100 100 85 80 41 53 86 60 58 100 100 100 100 100 100 100